Terminal Aerodrome Forecast
Issued by NWS

Home | Current Version | Previous Version | Text Only | Print | Product List | Glossary On
Versions: 1 2 3 4 5 6 7 8 9 10 11 12 13 14 15 16 17 18 19 20 21 22 23 24 25 26 27 28
000
FTUS41 KBOX 211128
TAFHYA
TAF
KHYA 211128Z 2112/2212 12007KT P6SM -SHRA OVC080
     FM211500 14009KT P6SM -SHRA OVC025
     FM211700 14009KT P6SM OVC070
     FM220300 06005KT P6SM BKN050
     FM220500 02004KT 5SM BR BKN015
     FM220900 02005KT 5SM BR BKN008=

USA.gov is the U.S. government's official web portal to all federal, state and local government web resources and services.